Preview of NWS' New Version of Forecast
This preview is not operational and should not be used for support decisions.

Regional Weather Roundup (RWR)

Issued by National Weather Service (NWS)

                            
000
ASUS46 KSEW 251010
RWRWA 

WASHINGTON REGIONAL WEATHER ROUNDUP
NATIONAL WEATHER SERVICE SEATTLE WA
300 AM PDT SUN AUG 25 2019

NOTE:"FAIR" INDICATES FEW OR NO CLOUDS BELOW 12,000 FEET WITH NO 
SIGNIFICANT WEATHER AND/OR OBSTRUCTIONS TO VISIBILITY.

WAZ507-509-555>559-251100-
SEATTLE, TACOMA, EVERETT, AND VICINITY
  
CITY           SKY/WX    TMP DP  RH WIND       PRES   REMARKS
EVERETT        CLOUDY    59  52  77 N3        30.08R                  
BOEING FIELD   MOCLDY    62  50  64 VRB5      30.07S                  
RENTON         MOCLDY    63  52  67 CALM      30.07R                  
SEATAC AIRPORT MOCLDY    62  51  67 NE12      30.07S                  
JBLM-MCCHORD   CLOUDY    57  57 100 CALM      30.07R                  
PUYALLUP       CLOUDY    57  57 100 CALM      30.08R                  
BREMERTON      NOT AVBL                                               
JBLM-FT LEWIS  CLOUDY    59  58  99 CALM      30.06S                  
TACOMA NARROWS CLOUDY    58  55  90 S5        30.06F                  
$$
 
WAZ001-503-506-510-514-515-251100-
NORTH INTERIOR
  
CITY           SKY/WX    TMP DP  RH WIND       PRES   REMARKS
BELLINGHAM     CLOUDY    60  54  80 S3        30.03S                  
FRIDAY HARBOR  CLOUDY    57  52  83 W5        30.05S                  
EASTSOUND      CLOUDY    59  55  88 SE5       30.03S                  
PORT ANGELES   FAIR      55  49  80 W5        30.08R                  
EDIZ HOOK      FAIR      55  52  88 NW10      30.07R                  
PORT TOWNSEND  FAIR      61  50  67 W6        30.05S                  
NAS WHIDBEY    MOCLDY    59  52  77 W13       30.09S                  
ARLINGTON      FAIR      58  52  80 N5        30.08S                  
BURLINGTON     MOCLDY    57  54  88 SE5       30.06R                  
$$
 
WAZ020-022-039-040-504-511-512-251100-
SOUTHWEST INTERIOR
  
CITY           SKY/WX    TMP DP  RH WIND       PRES   REMARKS
SHELTON        MOCLDY    57  53  86 CALM      30.05R                  
OLYMPIA        CLOUDY    56  53  90 S3        30.07R                  
CHEHALIS       FAIR      54  54 100 SW3       30.08S                  
KELSO          CLOUDY    58  55  90 CALM      30.10R                  
VANCOUVER      FAIR      62  54  74 VRB6      30.08R                  
SCAPPOOSE, OR  FAIR      61  53  75 N7        30.07R                  
PORTLAND, OR   CLOUDY    63  54  72 NW5       30.08R                  
$$
 
WAZ021-516-517-251100-
WASHINGTON COAST
  
CITY           SKY/WX    TMP DP  RH WIND       PRES   REMARKS
FORKS          CLOUDY    55  53  93 CALM      30.10S                  
HOQUIAM        FAIR      58  55  90 NW8       30.08S                  
ASTORIA, OR    FAIR      59  55  87 NW7       30.10S                  
$$
 
WAZ019-023-024-040-567>569-251100-
CASCADE MOUNTAINS AND COLUMBIA GORGE
  
CITY           SKY/WX    TMP DP  RH WIND       PRES   REMARKS
STAMPEDE PASS  FAIR      48  45  89 VRB6      30.08S                  
TROUTDALE, OR  CLOUDY    63  54  72 W3        30.08R                  
HOOD RIVER, OR CLOUDY    63  54  72 W6G17     30.02R                  
THE DALLES, OR FAIR      67  53  61 NW15G24   29.97R                  
$$

WAZ026-027-041>044-520-521-251100-
EAST SLOPES
  
CITY           SKY/WX    TMP DP  RH WIND       PRES   REMARKS
OMAK           FAIR      61  43  51 NW7       29.90R                  
WENATCHEE      FAIR      67  44  43 W9        29.91R                  
ELLENSBURG     FAIR      63  48  58 NW17G24   29.96S                  
YAKIMA         FAIR      60  49  66 W6        29.95R                  
SUNNYSIDE ARPT FAIR      55  53  92 NE3       29.94S                  
YAKIMA TC      PTSUNNY   64  45  50 CALM      29.95R                  
$$

WAZ028-034-035-251100-
COLUMBIA BASIN
  
CITY           SKY/WX    TMP DP  RH WIND       PRES   REMARKS
EPHRATA        FAIR      67  43  41 S3        29.89R                  
MOSES LAKE     FAIR      66  49  54 W9        29.90R                  
PASCO          FAIR      64  50  60 CALM      29.93R                  
RICHLAND ARPT  FAIR      61  52  71 CALM      29.93                   
HERMISTON, OR  FAIR      64  51  62 SW6       29.94R                  
$$

WAZ036>038-251100-
NORTHEAST WASHINGTON
  
CITY           SKY/WX    TMP DP  RH WIND       PRES   REMARKS
SPOKANE GEIGER MOCLDY    60  43  53 S14       29.89R                  
SPOKANE FELTS  FAIR      63  44  50 SW9       29.88R                  
FAIRCHILD AFB  CLOUDY    58  44  59 SW6       29.89R                  
COEURDALENE,ID FAIR      61  46  57 S5        29.89R                  
DEER PARK      FAIR      58  44  60 S5        29.87R                  
$$

WAZ029>033-251100-
SOUTHEAST WASHINGTON
  
CITY           SKY/WX    TMP DP  RH WIND       PRES   REMARKS
PULLMAN        FAIR      61  45  55 SW8       29.97R                  
LEWISTON, ID   FAIR      71  44  37 NW7       29.90R                  
WALLA WALLA    FAIR      64  48  56 S9        29.96R                  
PENDLETON, OR  FAIR      64  48  56 SW8       29.97R                  
$$